Happy Valentine's Day! 

Flight Track Log - Related Links

Times and Time Zones

All times are in EDT time to prevent confusion due to time zone crossing. See the SWA59 flight status page for this flight to view local times or setup timezone preferences in your user account.


Time Position Orientation Groundspeed Altitude Reporting Facility
EDT Latitude Longitude Course Direction KTS MPH feet Rate Location/Type
Wed 05:44:56 PM 39.8667 -75.2667 218° Southwest 152 175 700  Level Philadelphia TRACON
Wed 05:45:44 PM 39.8333 -75.3000 218° Southwest 176 203 2,000 2,278 Climbing Philadelphia TRACON
Wed 05:46:44 PM 39.7833 -75.3500 218° Southwest 222 255 4,800 2,697 Climbing Philadelphia TRACON
Wed 05:48:42 PM 39.7342 -75.5219 250° West 262 302 10,000 2,080 Climbing New York Center
Wed 05:49:40 PM 39.7322 -75.6217 269° West 268 308 10,900 1,008 Climbing New York Center
Wed 05:50:41 PM 39.7467 -75.7308 280° West 300 345 12,000 694 Climbing New York Center
Wed 05:51:41 PM 39.7647 -75.8456 282° West 337 388 12,300 1,884 Climbing New York Center
Wed 05:52:42 PM 39.7836 -75.9847 280° West 351 404 15,800 3,124 Climbing New York Center
Wed 05:53:42 PM 39.7761 -76.1056 265° West 365 420 18,600 2,876 Climbing New York Center
Wed 05:54:43 PM 39.7639 -76.2344 263° West 365 420 21,600 3,421 Climbing New York Center
Wed 05:55:43 PM 39.7533 -76.3714 264° West 371 427 25,500 2,695 Climbing New York Center
Wed 05:56:41 PM 39.7450 -76.5031 265° West 371 427 26,900 1,271 Climbing New York Center
Wed 05:57:41 PM 39.7317 -76.6450 263° West 384 442 28,000 1,350 Climbing New York Center
Wed 05:58:41 PM 39.7197 -76.7981 264° West 407 468 29,600 1,535 Climbing New York Center
Wed 05:59:07 PM 39.7111 -76.8592 260° West 417 480 30,200 1,624 Climbing Washington Center
Wed 06:00:06 PM 39.6989 -77.0156 264° West 430 495 31,900 1,563 Climbing Washington Center
Wed 06:01:06 PM 39.6844 -77.1769 263° West 441 507 33,300 1,438 Climbing Washington Center
Wed 06:02:07 PM 39.6367 -77.3269 248° West 447 514 34,800 1,488 Climbing Washington Center
Wed 06:03:07 PM 39.5722 -77.4600 238° Southwest 447 514 36,300 1,424 Climbing Washington Center
Wed 06:04:05 PM 39.5094 -77.5956 239° Southwest 441 507 37,600 864 Climbing Washington Center
Wed 06:05:05 PM 39.4425 -77.7281 237° Southwest 441 507 38,000 198 Climbing Washington Center
Wed 06:06:06 PM 39.3797 -77.8631 239° Southwest 446 513 38,000  Level Washington Center
Wed 06:07:06 PM 39.3250 -78.0008 243° Southwest 441 507 38,000  Level Washington Center
Wed 06:08:07 PM 39.2633 -78.1569 243° Southwest 435 501 38,000  Level Washington Center
Wed 06:09:07 PM 39.2186 -78.2975 248° West 435 501 38,000  Level Washington Center
Wed 06:10:07 PM 39.1881 -78.4489 255° West 435 501 38,000  Level Washington Center
Wed 06:11:05 PM 39.1553 -78.5975 254° West 435 501 38,000  Level Washington Center
Wed 06:12:06 PM 39.1222 -78.7486 254° West 435 501 38,000  Level Washington Center
Wed 06:13:05 PM 39.0908 -78.9025 255° West 435 501 38,000  Level Washington Center
Wed 06:14:05 PM 39.0597 -79.0508 255° West 435 501 38,000  Level Washington Center
Wed 06:15:06 PM 39.0281 -79.2042 255° West 435 501 38,000  Level Washington Center
Wed 06:16:06 PM 38.9942 -79.3522 254° West 435 501 38,000  Level Washington Center
Wed 06:17:05 PM 38.9625 -79.5028 255° West 435 501 38,000  Level Washington Center
Wed 06:18:05 PM 38.9281 -79.6583 254° West 441 507 38,000  Level Washington Center
Wed 06:19:06 PM 38.8936 -79.8086 254° West 447 514 38,000  Level Washington Center
Wed 06:20:06 PM 38.8592 -79.9558 253° West 447 514 38,000  Level Washington Center
Wed 06:21:50 PM 38.8178 -80.2003 258° West 439 505 38,000  Level Indianapolis Center
Wed 06:22:52 PM 38.8131 -80.3553 268° West 434 499 38,000  Level Indianapolis Center
Wed 06:23:54 PM 38.8097 -80.5086 268° West 433 498 38,000  Level Indianapolis Center
Wed 06:24:56 PM 38.8039 -80.6931 268° West 432 497 38,000  Level Indianapolis Center
Wed 06:25:58 PM 38.7986 -80.8467 268° West 432 497 38,000  Level Indianapolis Center
Wed 06:27:00 PM 38.7936 -81.0008 268° West 433 498 38,000  Level Indianapolis Center
Wed 06:28:02 PM 38.7886 -81.1528 268° West 430 495 38,000  Level Indianapolis Center
Wed 06:29:04 PM 38.7831 -81.3050 267° West 429 494 38,000  Level Indianapolis Center
Wed 06:30:06 PM 38.7769 -81.4767 267° West 431 496 38,000  Level Indianapolis Center
Wed 06:31:08 PM 38.7722 -81.6306 268° West 433 498 38,000  Level Indianapolis Center
Wed 06:32:10 PM 38.7647 -81.7861 267° West 433 498 38,000  Level Indianapolis Center
Wed 06:33:12 PM 38.7583 -81.9386 267° West 432 497 38,000  Level Indianapolis Center
Wed 06:34:14 PM 38.7519 -82.0914 267° West 432 497 38,000  Level Indianapolis Center
Wed 06:35:16 PM 38.7458 -82.2772 268° West 434 499 38,000  Level Indianapolis Center
Wed 06:36:18 PM 38.7389 -82.4317 267° West 435 501 38,000  Level Indianapolis Center
Wed 06:37:20 PM 38.7319 -82.5861 267° West 436 502 38,000  Level Indianapolis Center
Wed 06:38:22 PM 38.7233 -82.7433 266° West 440 506 38,000  Level Indianapolis Center
Wed 06:39:24 PM 38.6997 -82.8969 259° West 440 506 38,000  Level Indianapolis Center
Wed 06:40:26 PM 38.6789 -83.0503 260° West 438 504 38,000  Level Indianapolis Center
Wed 06:41:28 PM 38.6556 -83.2264 260° West 427 491 38,000  Level Indianapolis Center
Wed 06:42:30 PM 38.6361 -83.3622 260° West 424 488 38,000  Level Indianapolis Center
Wed 06:43:32 PM 38.6119 -83.5306 260° West 417 480 38,000  Level Indianapolis Center
Wed 06:44:34 PM 38.5908 -83.6778 260° West 420 483 38,000  Level Indianapolis Center
Wed 06:45:36 PM 38.5697 -83.8247 260° West 420 483 38,000  Level Indianapolis Center
Wed 06:46:38 PM 38.5483 -83.9742 260° West 427 491 38,000  Level Indianapolis Center
Wed 06:47:40 PM 38.5256 -84.1256 259° West 434 499 38,000  Level Indianapolis Center
Wed 06:48:42 PM 38.4989 -84.3019 259° West 436 502 38,000  Level Indianapolis Center
Wed 06:49:44 PM 38.4778 -84.4489 260° West 426 490 38,000  Level Indianapolis Center
Wed 06:50:46 PM 38.4550 -84.5956 259° West 422 486 38,000  Level Indianapolis Center
Wed 06:51:48 PM 38.4331 -84.7417 259° West 421 484 38,000  Level Indianapolis Center
Wed 06:52:50 PM 38.4064 -84.9128 259° West 423 487 38,000  Level Indianapolis Center
Wed 06:53:52 PM 38.3833 -85.0594 259° West 422 486 38,000  Level Indianapolis Center
Wed 06:54:54 PM 38.3603 -85.2067 259° West 423 487 38,000  Level Indianapolis Center
Wed 06:55:57 PM 38.3383 -85.3400 258° West 425 489 38,000  Level Indianapolis Center
Wed 06:56:59 PM 38.3117 -85.5156 259° West 421 484 38,000  Level Indianapolis Center
Wed 06:58:01 PM 38.2878 -85.6622 258° West 422 486 38,000  Level Indianapolis Center
Wed 06:59:03 PM 38.2644 -85.8086 259° West 421 484 38,000  Level Indianapolis Center
Wed 07:00:05 PM 38.2403 -85.9542 258° West 422 486 38,000  Level Indianapolis Center
Wed 07:01:07 PM 38.2156 -86.0983 258° West 417 480 38,000  Level Indianapolis Center
Wed 07:02:09 PM 38.1928 -86.2431 259° West 416 479 38,000  Level Indianapolis Center
Wed 07:03:11 PM 38.1686 -86.3881 258° West 417 480 38,000  Level Indianapolis Center
Wed 07:04:13 PM 38.1389 -86.5608 258° West 416 479 38,000  Level Indianapolis Center
Wed 07:05:15 PM 38.1136 -86.7042 257° West 415 478 38,000  Level Indianapolis Center
Wed 07:06:17 PM 38.0897 -86.8489 258° West 414 476 38,000  Level Indianapolis Center
Wed 07:07:19 PM 38.0647 -86.9917 258° West 410 472 38,000 -484 Level Indianapolis Center
Wed 07:08:21 PM 38.0394 -87.1344 257° West 408 470 37,000 -919 Descending Indianapolis Center
Wed 07:09:23 PM 38.0147 -87.2775 258° West 409 471 36,100 -919 Descending Indianapolis Center
Wed 07:10:25 PM 37.9897 -87.4192 257° West 409 471 35,100 -1,016 Descending Indianapolis Center
Wed 07:11:27 PM 37.9642 -87.5608 257° West 410 472 34,000 -532 Descending Indianapolis Center
Wed 07:12:29 PM 37.9392 -87.7011 257° West 408 470 34,000 -48 Level Indianapolis Center
Wed 07:13:31 PM 37.9169 -87.8419 259° West 406 467 33,900 -629 Descending Indianapolis Center
Wed 07:14:33 PM 37.8953 -88.0094 261° West 402 463 32,700 -919 Descending Indianapolis Center
Wed 07:15:35 PM 37.8747 -88.1508 260° West 406 467 32,000 -339 Descending Indianapolis Center
Wed 07:16:37 PM 37.8569 -88.2944 261° West 411 473 32,000  Level Indianapolis Center
Wed 07:17:39 PM 37.8397 -88.4364 261° West 409 471 32,000  Level Indianapolis Center
Wed 07:18:40 PM 37.8272 -88.5783 264° West 405 466 32,000  Level Indianapolis Center
Wed 07:19:42 PM 37.8128 -88.7197 263° West 403 464 32,000  Level Indianapolis Center
Wed 07:20:44 PM 37.7989 -88.8614 263° West 405 466 32,000  Level Indianapolis Center
Wed 07:21:46 PM 37.7836 -89.0042 262° West 406 467 32,000 -1,113 Level Indianapolis Center
Wed 07:22:48 PM 37.7728 -89.1742 265° West 404 465 29,700 -2,226 Descending Indianapolis Center
Wed 07:23:50 PM 37.7925 -89.3119 280° West 395 455 27,400 -2,177 Descending Indianapolis Center
Wed 07:24:52 PM 37.8086 -89.4450 279° West 386 444 25,200 -2,029 Descending Indianapolis Center
Wed 07:26:06 PM 37.8250 -89.5894 278° West 380 437 22,800 -2,118 Descending Kansas City Center
Wed 07:27:08 PM 37.8478 -89.7331 281° West 364 419 20,400 -2,226 Descending Kansas City Center
Wed 07:28:10 PM 37.8975 -89.8494 298° West 350 403 18,200 -1,984 Descending Kansas City Center
Wed 07:29:12 PM 37.9436 -89.9558 299° West 345 397 16,300 -1,951 Descending Kansas City Center
Wed 07:30:13 PM 38.0289 -90.0122 332° Northwest 347 399 14,200 -2,000 Descending Kansas City Center
Wed 07:31:15 PM 38.1111 -90.0592 336° Northwest 342 394 12,200 -1,839 Descending Kansas City Center
Wed 07:32:17 PM 38.2025 -90.0772 351° North 337 388 10,400 -1,403 Descending Kansas City Center
Wed 07:33:19 PM 38.2869 -90.0864 355° North 317 365 9,300 -1,317 Descending Kansas City Center
Wed 07:34:20 PM 38.3847 -90.0972 355° North 299 344 7,700 -1,512 Descending Kansas City Center
Wed 07:35:22 PM 38.4675 -90.1061 355° North 287 330 6,200 -1,403 Descending Kansas City Center
Wed 07:36:24 PM 38.5367 -90.1258 347° North 277 319 4,800 -1,258 Descending Kansas City Center
Wed 07:37:26 PM 38.6089 -90.1586 340° North 277 319 3,600 -780 Descending Kansas City Center
Wed 07:38:27 PM 38.6697 -90.1978 333° Northwest 267 307 3,200 -390 Descending Kansas City Center
Wed 07:39:29 PM 38.6967 -90.2542 301° West 216 249 2,800 -919 Descending Kansas City Center
Wed 07:40:31 PM 38.7181 -90.2978 302° West 151 174 1,300 -1,024 Descending Kansas City Center
Wed 07:41:32 PM 38.7353 -90.3328 302° West 129 148 700 -341 Descending Kansas City Center
Wed 07:42:34 PM 38.7528 -90.3694 301° West 128 147 600 -97 Descending Kansas City Center
Wed 07:44:00 PM 38.7487 -90.3700 180° South  Level Estimated

Login

Don't have an account? Register now (free) for customized features, flight alerts, and more!